Lone Rock, WI

2:31 PM CDT on August 20, 2017 (GMT -0500)
Tri-County Regional

Weather History for KLNR - September, 2014

Change the Weather History Date:

Saturday, September 6, 2014

  Actual Average Record
Temperature  
Mean Temperature 66 °F -  
Max Temperature 78 °F 76 °F 91 °F (2015)
Min Temperature 54 °F 52 °F 42 °F (2011)
Cooling Degree Days 1    
Growing Degree Days 16 (Base 50)    
Moisture  
Dew Point 51 °F    
Average Humidity 62    
Maximum Humidity 83    
Minimum Humidity 37    
Precipitation  
Precipitation 0.00 in - - ()
Sea Level Pressure  
Sea Level Pressure 30.16 in    
Wind  
Wind Speed 7 mph (WNW)    
Max Wind Speed 13 mph    
Max Gust Speed -    
Visibility 10 miles    
Events      
Averages and records for this station are not official NWS values.
T = Trace of Precipitation, MM = Missing Value Source: NWS Daily Summary

Daily Weather History Graph

Daily Weather History Graph

Search for Another Location

Airport or City:

Trip Planner

Search our weather history database for the weather conditions in past years. The results will help you decide how hot, cold, wet, or windy it might be!

Date:

Astronomy

Sep. 06, 2014 Rise Set
Actual Time 6:30 AM CDT 7:26 PM CDT
Civil Twilight 6:01 AM CDT 7:55 PM CDT
Nautical Twilight 5:26 AM CDT 8:30 PM CDT
Astronomical Twilight 4:50 AM CDT 9:06 PM CDT
Moon 5:45 PM CDT (9/6) 3:29 AM CDT (9/6)
Length of Visible Light 13h 54m
Length of Day
12h 56m
Waxing Gibbous, 92% of the Moon is Illuminated
Sep 6
Waxing Gibbous
Sep 8
Full
Sep 15
Last Quarter
Sep 24
New
Oct 1
First Quarter

Hourly Weather History & Observations

Time (CDT) Temp. Dew Point Humidity Pressure Visibility Wind Dir Wind Speed Gust Speed Precip Events Conditions
12:56 AM 59.0 °F 52.0 °F 78% 30.14 in 10.0 mi West 5.8 mph - N/A   Clear
2:56 AM 57.9 °F 52.0 °F 81% 30.15 in 10.0 mi NW 8.1 mph - N/A   Clear
3:56 AM 57.9 °F 51.1 °F 78% 30.15 in 10.0 mi NW 9.2 mph - N/A   Clear
5:56 AM 54.0 °F 48.9 °F 83% 30.17 in 10.0 mi WSW 4.6 mph - N/A   Clear
6:56 AM 54.0 °F 48.9 °F 83% 30.18 in 10.0 mi WSW 3.5 mph - N/A   Clear
7:56 AM 57.9 °F 52.0 °F 81% 30.19 in 10.0 mi West 4.6 mph - N/A   Clear
8:56 AM 62.1 °F 53.1 °F 72% 30.19 in 10.0 mi West 3.5 mph - N/A   Clear
9:56 AM 66.9 °F 52.0 °F 59% 30.20 in 10.0 mi NW 8.1 mph - N/A   Clear
10:56 AM 70.0 °F 51.1 °F 51% 30.19 in 10.0 mi West 8.1 mph - N/A   Clear
11:56 AM 72.0 °F 50.0 °F 46% 30.19 in 10.0 mi NW 5.8 mph - N/A   Clear
12:56 PM 73.9 °F 51.1 °F 45% 30.17 in 10.0 mi West 10.4 mph - N/A   Clear
1:56 PM 75.9 °F 52.0 °F 43% 30.17 in 10.0 mi WNW 12.7 mph - N/A   Clear
2:56 PM 77.0 °F 52.0 °F 42% 30.15 in 10.0 mi West 11.5 mph - N/A   Clear
3:56 PM 78.1 °F 52.0 °F 40% 30.14 in 10.0 mi WNW 11.5 mph - N/A   Partly Cloudy
4:56 PM 78.1 °F 52.0 °F 40% 30.13 in 10.0 mi WNW 10.4 mph - N/A   Clear
5:56 PM 77.0 °F 48.9 °F 37% 30.13 in 10.0 mi WNW 9.2 mph - N/A   Clear
6:56 PM 73.9 °F 48.0 °F 40% 30.13 in 10.0 mi NW 6.9 mph - N/A   Clear
7:56 PM 64.0 °F 52.0 °F 65% 30.14 in 10.0 mi NNW 3.5 mph - N/A   Clear
9:56 PM 59.0 °F 51.1 °F 75% 30.17 in 10.0 mi Calm Calm - N/A   Clear
10:56 PM 57.0 °F 51.1 °F 81% 30.16 in 10.0 mi Calm Calm - N/A   Clear
11:56 PM 55.9 °F 50.0 °F 80% 30.16 in 10.0 mi Calm Calm - N/A   Clear